Погода в Кортрейке

Бельгия     50°49′25″N   3°15′32″E
темп.,
°C
ветер,
м/с
пор.,
м/с
влажн.,
%
обл.,
%
осадки,
мм/ч
давл.,
гПа
погр.,
м
20 января, чт
чт2001:00+4сз39845 0.3 1028276
04:00+5сз4118886 0.3 1028588
07:00+4сз51184100 0.5 1030693
10:00+5с497091 0.2 1031933
13:00+6с5965100 0.4 10331423
16:00+5с51064100 0.3 10331454
19:00+5с51067100 0.4 10341185
22:00+4с4969100 0.2 10351027
21 января, пт
пт2101:00+3ссз2974100 0.3 1036445
04:00+4ссз297499 0.1 1036433
07:00+3сз278630 0.2 1035236
10:00+4сз3984100 0.1 1036422
13:00+6сз477485 0.1 1036688
16:00+6сз46716 0.0 1036729
19:00+4сз37815 0.0 1036236
22:00+3з25845 0.0 1037130
22 января, сб
сб2201:00+3з36885 0.0 1037142
04:00+2з37915 0.0 1036167
07:00+2з27951 0.0 1036155
10:00+3з27941 0.0 1036191
13:00+7зсз367955 0.0 1036587
16:00+7сз4777100 0.0 1035718
19:00+6сз2579100 0.0 1036579
22:00+6с3476100 0.0 1036249
23 января, вс
вс2301:00+6с1181100 0.0 103518
04:00+5ссз1183100 0.1 103528
07:00+6ссв1177100 0.1 103513
10:00+6всв1174100 0.0 103627
13:00+7всв116986 0.0 1036139
16:00+8с11645 0.0 1035158
19:00+5св11765 0.0 103611
22:00+4всв11811 0.0 103610
24 января, пн
пн2401:00+4с00840 0.0 103610
04:00+3зсз11870 0.0 103610
07:00+2зсз11895 0.0 103610
10:00+3зсз11840 0.0 103636
13:00+7зсз237514 0.0 1036377
16:00+7зсз247554 0.0 1036568
19:00+4зсз248945 0.0 1037104
22:00+3сз23912 0.0 103878